Westerly, RI

7:26 PM EDT on April 23, 2017 (GMT -0400)
Westerly State

Weather History for KWST - September, 2013

Change the Weather History Date:

Wednesday, September 4, 2013

  Actual Average (KGON) Record (KGON)
Temperature  
Mean Temperature 66 °F -  
Max Temperature 75 °F 76 °F 91 °F (1973)
Min Temperature 57 °F 58 °F 48 °F (1975)
Cooling Degree Days 1    
Growing Degree Days 16 (Base 50)    
Moisture  
Dew Point 59 °F    
Average Humidity 76    
Maximum Humidity 97    
Minimum Humidity 55    
Precipitation  
Precipitation 0.00 in - - ()
Sea Level Pressure  
Sea Level Pressure 29.92 in    
Wind  
Wind Speed 4 mph (West)    
Max Wind Speed 16 mph    
Max Gust Speed 25 mph    
Visibility 10 miles    
Events      
Averages and records for this station are not official NWS values.
T = Trace of Precipitation, MM = Missing Value Source: NWS Daily Summary

Daily Weather History Graph

Daily Weather History Graph

Search for Another Location

Airport or City:

Trip Planner

Search our weather history database for the weather conditions in past years. The results will help you decide how hot, cold, wet, or windy it might be!

Date:

Astronomy

Sep. 04, 2013 Rise Set
Actual Time 6:16 AM EDT 7:14 PM EDT
Civil Twilight 5:48 AM EDT 7:42 PM EDT
Nautical Twilight 5:14 AM EDT 8:16 PM EDT
Astronomical Twilight 4:39 AM EDT 8:51 PM EDT
Moon 5:25 AM EDT (9/4) 6:32 PM EDT (9/4)
Length of Visible Light 13h 54m
Length of Day
12h 58m
Waning Crescent, 1% of the Moon is Illuminated
Sep 4
Waning Crescent
Sep 5
New
Sep 12
First Quarter
Sep 19
Full
Sep 26
Last Quarter

Hourly Weather History & Observations

Time (EDT) Temp. Dew Point Humidity Pressure Visibility Wind Dir Wind Speed Gust Speed Precip Events Conditions
12:53 AM 62.1 °F 59.0 °F 90% 29.85 in 10.0 mi Calm Calm - N/A   Clear
1:53 AM 61.0 °F 59.0 °F 93% 29.86 in 10.0 mi Calm Calm - N/A   Clear
2:53 AM 60.1 °F 57.9 °F 93% 29.87 in 10.0 mi Variable 3.5 mph - N/A   Clear
3:53 AM 59.0 °F 57.9 °F 96% 29.87 in 10.0 mi West 4.6 mph - N/A   Clear
4:53 AM 57.9 °F 57.0 °F 97% 29.88 in 10.0 mi West 3.5 mph - N/A   Clear
5:53 AM 57.9 °F 57.0 °F 97% 29.90 in 10.0 mi West 3.5 mph - N/A   Clear
6:53 AM 57.9 °F 57.0 °F 97% 29.91 in 10.0 mi Calm Calm - N/A   Clear
7:53 AM 61.0 °F 59.0 °F 93% 29.93 in 10.0 mi West 4.6 mph - N/A   Clear
8:53 AM 66.0 °F 59.0 °F 78% 29.95 in 10.0 mi Variable 5.8 mph - N/A   Clear
9:53 AM 70.0 °F 60.1 °F 71% 29.95 in 10.0 mi Variable 4.6 mph - N/A   Clear
10:53 AM 72.0 °F 57.9 °F 61% 29.94 in 10.0 mi NW 9.2 mph - N/A   Clear
11:53 AM 73.0 °F 57.0 °F 57% 29.94 in 10.0 mi West 8.1 mph - N/A   Clear
12:53 PM 75.9 °F 59.0 °F 56% 29.93 in 10.0 mi WNW 5.8 mph - N/A   Clear
1:53 PM 75.0 °F 59.0 °F 57% 29.93 in 10.0 mi SW 13.8 mph 20.7 mph N/A   Clear
2:53 PM 73.9 °F 60.1 °F 62% 29.93 in 10.0 mi WSW 11.5 mph 23.0 mph N/A   Clear
3:53 PM 73.9 °F 59.0 °F 59% 29.93 in 10.0 mi WSW 16.1 mph 25.3 mph N/A   Clear
4:53 PM 75.0 °F 57.9 °F 55% 29.92 in 10.0 mi WSW 8.1 mph 17.3 mph N/A   Clear
5:53 PM 75.0 °F 57.9 °F 55% 29.91 in 10.0 mi West 8.1 mph - N/A   Clear
6:53 PM 73.0 °F 55.9 °F 55% 29.91 in 10.0 mi West 3.5 mph - N/A   Clear
7:53 PM 70.0 °F 57.0 °F 63% 29.92 in 10.0 mi Calm Calm - N/A   Clear
8:53 PM 66.9 °F 57.9 °F 73% 29.94 in 10.0 mi Calm Calm - N/A   Clear
9:53 PM 66.0 °F 59.0 °F 78% 29.95 in 10.0 mi SSW 3.5 mph - N/A   Clear
10:53 PM 64.9 °F 62.1 °F 90% 29.96 in 10.0 mi Calm Calm - N/A   Clear
11:53 PM 66.0 °F 63.0 °F 90% 29.95 in 10.0 mi Calm Calm - N/A   Clear